Regional Weather Roundup
Issued by NWS

Home | Current Version | Previous Version | Text Only | Print | Product List | Glossary On
Versions: 1 2 3 4 5 6 7 8 9 10 11 12 13 14 15 16 17 18 19 20 21 22 23 24 25 26 27 28 29 30 31 32 33 34 35 36 37 38 39 40 41 42 43 44 45 46 47 48 49 50
000
ASUS43 KMPX 151410
RWRMN
WEATHER ROUNDUP FOR MINNESOTA
NATIONAL WEATHER SERVICE TWIN CITIES/CHANHASSEN MN
900 AM CDT THU APR 15 2021


NOTE: "FAIR" INDICATES FEW OR NO CLOUDS BELOW 12,000 FEET WITH NO
SIGNIFICANT WEATHER AND/OR OBSTRUCTIONS TO VISIBILITY. N/A MEANS
CURRENT SKY AND/OR WEATHER CONDITIONS ARE NOT AVAILABLE.

MNZ060>063-068>070-151500-
   Twin Cities Metro

CITY           SKY/WX    TMP DP  RH WIND       PRES   REMARKS
TWIN CITIES    CLOUDY    40  35  83 N8        30.19S
ST PAUL        CLOUDY    41  33  73 N10       30.20S
CRYSTAL        CLOUDY    40  33  76 NW8       30.18S
BLAINE         CLOUDY    41  34  75 N12       30.18F
LAKEVILLE      DRIZZLE   39  36  87 NW8       30.18S
EDEN PRAIRIE   CLOUDY    39  34  82 N10       30.18S
SOUTH ST PAUL  CLOUDY    40  33  75 N9        30.18F
LAKE ELMO      CLOUDY    39  34  81 N7        30.19S
$$
MNZ001>005-007-008-013>017-022>024-027-028-151500-
   Northwest Minnesota

CITY           SKY/WX    TMP DP  RH WIND       PRES   REMARKS
BEMIDJI        CLOUDY    32  32  99 N6        30.23R WCI  27
HALLOCK        CLOUDY    32  30  93 N8        30.30S WCI  25
ROSEAU         MOSUNNY   36 N/A N/A NE7       30.27S
WARROAD        CLOUDY    34  30  86 N7        30.26F WCI  28
THIEF RVR FALL CLOUDY    33  30  88 N8        30.28S WCI  26
CROOKSTON      PTSUNNY   30  28  93 N10       30.28F WCI  21
FOSSTON        FOG       30  28  93 N9        30.25S VSB 1/4 WCI  22
DETROIT LAKES  FOG       30  30 100 NW12      30.24S VSB 3/4 WCI  21
MOORHEAD       CLOUDY    34  27  75 N9        30.28S WCI  26
PARK RAPIDS    CLOUDY    33  30  88 N8        30.21S WCI  26
MAHNOMEN       CLOUDY    31  31 100 N8        30.25S FOG     WCI  23
$$
MNZ006-009>011-018-025>026-151500-
   North Central Minnesota

CITY           SKY/WX    TMP DP  RH WIND       PRES   REMARKS
BAUDETTE       CLOUDY    34  29  82 N7        30.24S WCI  28
INTL FALLS     CLOUDY    34  29  82 N10       30.22R WCI  26
WASKISH        CLOUDY    34  30  86 N6        30.23S WCI  29
BIG FORK       CLOUDY    34  28  80 N6        30.25S WCI  29
LONGVILLE      CLOUDY    32  30  93 CALM      30.20S
GRAND RAPIDS   CLOUDY    33  29  85 N9        30.21S WCI  25
CRANE LAKE     CLOUDY    30  28  93 N6        30.23S WCI  24
ORR            CLOUDY    32  28  86 CALM      30.17S
COOK           CLOUDY    32  28  86 N6        30.18F WCI  26
WALKER         CLOUDY    33  30  91 N6        30.22R WCI  27
$$
MNZ012-019>021-037-151500-
   Northeast Minnesota

CITY           SKY/WX    TMP DP  RH WIND       PRES   REMARKS
DULUTH         CLOUDY    34  28  79 N5        30.15S WCI  30
ELY            LGT SNOW  32  30  93 N5        30.17S WCI  27
HIBBING        CLOUDY    32  28  85 N10       30.17S WCI  24
EVELETH        CLOUDY    32  30  93 N7        30.18S WCI  26
DULUTH HARBOR  CLOUDY    37  30  75 N6        30.19S
TWO HARBORS    CLOUDY    36  27  69 N3        30.14F
SILVER BAY     CLOUDY    34  27  75 CALM      30.14S
GRAND MARAIS     N/A     39  28  64 VRB3      30.13F
G MARAIS ARPRT MOSUNNY   34  27  75 NW13G22   30.08S WCI  25
$$
MNZ029>031-032-039>041-046>048-054>057-064-151500-
   West Central Minnesota

CITY           SKY/WX    TMP DP  RH WIND       PRES   REMARKS
FERGUS FALLS   LGT SNOW  30  28  93 N9        30.22S WCI  22
MORRIS         SUNNY     30  28  93 N12       30.26R WCI  21
ALEXANDRIA     CLOUDY    33  31  92 N9        30.22S WCI  25
ELBOW LAKE     CLOUDY    30  30 100 NW8       30.25S WCI  23
WADENA           N/A     34  34 100 N6        30.22R WCI  29
GLENWOOD       CLOUDY    34  32  93 NW9       30.22S WCI  26
APPLETON       CLOUDY    34  30  86 N9        30.26R WCI  26
BENSON         CLOUDY    32  30  93 N8        30.26R WCI  25
ORTONVILLE     CLOUDY    30  28  93 N12       30.26S WCI  21
MADISON        CLOUDY    34  30  86 N10       30.28R WCI  26
WILLMAR        FAIR      36  34  93 NW8       30.25S
$$
MNZ033>034-036-042>043-049>051-058-059-151500-
   Central Minnesota

CITY           SKY/WX    TMP DP  RH WIND       PRES   REMARKS
ST CLOUD       CLOUDY    37  32  82 N9        30.20S
SAUK CENTRE    CLOUDY    33  32  95 NW9       30.22S WCI  26
PAYNESVILLE    CLOUDY    34  34 100 NW9       30.23R WCI  26
AITKIN         CLOUDY    34  30  86 CALM      30.20R
BRAINERD       CLOUDY    37  29  72 N9        30.20S
STAPLES        CLOUDY    36  32  87 N10       30.21S
LONG PRAIRIE   CLOUDY    32  32 100 N6        30.21F WCI  26
LITTLE FALLS   CLOUDY    34  30  86 NW6       30.21S WCI  29
CAMP RIPLEY    CLOUDY    36  31  80 NW8       30.22R
LITCHFIELD     PTSUNNY   37  36  93 NW8       30.21F
BUFFALO        CLOUDY    38  32  80 MISG      30.21S
MAPLE LAKE       N/A     39  34  81 N9        30.21F
HUTCHINSON     CLOUDY    37  35  89 NW10      30.22S
$$
MNZ037-044-045-052-053-151500-
   East Central Minnesota

CITY           SKY/WX    TMP DP  RH WIND       PRES   REMARKS
PRINCETON      CLOUDY    39  34  81 NW7       30.20S
MORA           CLOUDY    36  30  80 NW6       30.21R
CAMBRIDGE      CLOUDY    41  30  65 NW7       30.19F
RUSH CITY      CLOUDY    38  32  80 N6        30.19S
MOOSE LAKE     CLOUDY    34  30  86 NW7       30.16S WCI  28
HINCKLEY       CLOUDY    37  32  81 CALM      30.18S
CLOQUET        CLOUDY    32  27  80 NW12      30.15S WCI  23
MCGREGOR       CLOUDY    34  30  86 N8        30.19S WCI  27
$$
MNZ071>073-080-081-089-090-097-098-151500-
   Southwest Minnesota

CITY           SKY/WX    TMP DP  RH WIND       PRES   REMARKS
MONTEVIDEO     CLOUDY    32  30  93 N12       30.25S WCI  23
GRANITE FALLS  CLOUDY    35  32  90 NW9       30.26S WCI  27
CANBY          CLOUDY    32  31  96 W10       30.27S WCI  24
MARSHALL       CLOUDY    31  29  92 N15       30.25S WCI  20
REDWOOD FALLS  CLOUDY    33  30  88 N7        30.23S WCI  27
OLIVIA         CLOUDY    34  32  93 NW10      30.22S WCI  26
PIPESTONE        N/A     30  28  93 NE7       30.22S WCI  23
WINDOM         CLOUDY    30  28  93 NW13      30.22S WCI  20
WORTHINGTON    CLOUDY    30  28  93 N12       30.23S WCI  21
JACKSON        CLOUDY    32  30  93 NW9G18    30.22S WCI  24
TRACY          CLOUDY    32  28  86 NW12      30.24S WCI  23
SLAYTON        CLOUDY    30  28  94 NW10      30.23S WCI  21
$$
MNZ065>067-074>077-082>085-091>093-151500-
   South Central Minnesota

CITY           SKY/WX    TMP DP  RH WIND       PRES   REMARKS
MANKATO        CLOUDY    36  33  89 NW9       30.21S
NEW ULM        CLOUDY    34  30  86 NW9       30.22S WCI  26
ST JAMES       CLOUDY    34  30  86 NW13      30.22S WCI  25
FAIRMONT       CLOUDY    33  30  88 NW15      30.22S WCI  23
GLENCOE        CLOUDY    37  33  87 NW8       30.20S
FARIBAULT      DRIZZLE   37  36  93 W5        30.19S
OWATONNA       CLOUDY    37  34  87 NW9       30.19R
WASECA         CLOUDY    36  32  87 NW9       30.21R
ALBERT LEA     CLOUDY    36  34  93 N9        30.18F
$$
MNZ078>079-086>088-094>096-151500-
   Southeast Minnesota

CITY           SKY/WX    TMP DP  RH WIND       PRES   REMARKS
ROCHESTER      CLOUDY    37  35  92 NW12      30.16S
RED WING       CLOUDY    41  34  75 N8        30.17R
STANTON        LGT RAIN  39  36  88 W6        30.18R
DODGE CENTER   CLOUDY    36  34  93 NW9       30.17S FOG
WINONA         CLOUDY    41  36  81 NW5       30.16F
AUSTIN         CLOUDY    37  36  93 NW10      30.17
PRESTON        CLOUDY    37  34  92 NW10      30.16S FOG
$$
ABBREVIATIONS USED IN REMARKS
   TC - TEMPERATURES IN CELSIUS
  WCI - WIND CHILL INDEX
   HX - HEAT INDEX
  VSB - VISIBILITY
$$



USA.gov is the U.S. government's official web portal to all federal, state and local government web resources and services.